Regional Weather Roundup
Issued by NWS

Home | Current Version | Previous Version | Text Only | Print | Product List | Glossary On
Versions: 1 2 3 4 5 6 7 8 9 10 11 12 13 14 15 16 17 18 19 20 21 22 23 24 25 26 27 28 29 30 31 32 33 34 35 36 37 38 39 40 41 42 43 44 45 46 47 48 49 50
000
ASUS42 KKEY 272010
RWRKEY

FLORIDA REGIONAL WEATHER ROUNDUP FOR THE FLORIDA KEYS
NATIONAL WEATHER SERVICE KEY WEST FLORIDA
300 PM EST TUE JAN 27 2015

...SOUTH FLORIDA AND THE KEYS...

CITY           SKY/WX    TMP DP  RH WIND       PRES   REMARKS
FORT MYERS     SUNNY     67  48  50 W14       30.00F
SW REGIONAL AP SUNNY     67  47  48 W12G22    30.01F
NAPLES         SUNNY     65  50  58 W12       30.02F
MIAMI          MOSUNNY   68  31  25 W9        30.00F
WEST KENDALL   SUNNY     71  33  24 W16       30.00F
HOMESTEAD      SUNNY     70  35  27 W10G16    30.00F
MARATHON       SUNNY     67  56  67 NW10      30.03F
BOCA CHICA NAS MOSUNNY   71  57  61 N10       30.04F
KEY WEST INTL  MOSUNNY   70  57  63 NW10      30.04F

...INTERNATIONAL WEATHER...

CITY           SKY/WX    TMP DP  RH WIND       PRES   REMARKS
NASSAU BAHAMAS MOSUNNY   68  52  56 W13       29.98S
CANCUN MEXICO  PTSUNNY   75  55  50 N8        30.08F
COZUMEL MEXICO PTSUNNY   72  57  60 NW7       30.10F

ADJACENT COASTAL WATERS...

STATION/POSITION TIME  SKY/WX   TEMP    WIND        PRES    WAVE
                                AIR SEA DIR/SP/G            HT/PER
                 (UTC)          (F)     (DEG/KT/KT) (MB)    (FT/S)
PULASKI SHOAL LI NOT AVBL
SAND KEY         NOT AVBL
SOMBRERO KEY     NOT AVBL
LONG KEY         NOT AVBL
MOLASSES REEF    NOT AVBL
FOWEY ROCKS      NOT AVBL
Buoy 42080       NOT AVBL

$$



USA.gov is the U.S. government's official web portal to all federal, state and local government web resources and services.